Temperature
18 18 18 18 18 18 18 18 18 18 18 18 18 18 18 18 18 18 18 18 18 18 18 18 18 18 18 18 18 18 18 18 18 18 18 18 18 18 18 18 18 18 18
18 18 18 18 18 18 18 18 18 18 18 18 18 18 18 18 18 18 18 18 18 18 18 18 18 18 18 18 18 18 18 18 18 18 18 18 18 18 18 18 18 18 18
18 18 18 18 18 18 18 18 18 18 18 18 18 18 18 18 18 18 17 17 17 18 18 18 18 18 18 18 18 18 18 18 18 18 18 18 18 18 18 18 18 18 18
18 18 18 18 18 18 17 17 17 17 17 17 18 17 17 17 17 17 17 17 17 17 17 18 18 18 18 18 18 18 18 18 18 17 17 17 17 18 18 18 18 18 18
18 18 18 18 18 18 17 17 17 17 17 17 17 17 17 17 17 17 17 17 17 17 17 17 18 18 18 18 18 18 18 17 17 17 17 17 17 17 17 17 17 18 18
18 18 18 18 18 18 17 18 17 17 17 17 17 17 17 17 17 17 17 17 17 17 17 17 17 17 17 17 17 17 17 17 17 17 17 17 17 17 17 17 17 17 18
18 18 18 18 18 18 17 17 17 17 17 17 17 17 17 17 17 17 17 17 17 17 17 17 17 17 17 17 17 17 17 17 17 17 17 17 17 17 17 17 17 17 17
18 18 18 18 18 18 17 17 17 17 17 17 17 17 17 17 17 17 17 17 17 17 17 17 17 17 17 17 17 17 17 17 17 17 17 17 17 17 17 17 17 17 17
18 18 18 18 17 17 17 17 17 17 17 17 17 17 17 17 17 17 17 17 17 17 17 17 17 17 17 17 17 17 17 17 17 17 16 16 17 17 17 17 17 17 17
18 18 18 17 17 17 17 17 17 17 17 17 17 17 17 16 17 17 17 17 17 17 17 17 17 17 17 17 17 17 17 17 16 17 16 16 16 16 16 16 16 16 16
18 18 18 17 17 17 17 17 17 17 17 17 16 16 16 16 16 16 16 17 17 17 17 17 17 17 17 17 17 16 16 16 16 16 16 16 16 16 16 16 16 16 16
18 18 18 18 17 17 17 17 17 17 16 16 16 16 16 16 16 16 16 16 16 16 16 16 16 16 16 16 16 16 16 16 16 16 16 16 16 16 16 16 16 16 16
19 18 18 18 18 17 17 17 17 17 16 16 16 16 16 16 16 16 16 16 16 16 16 16 16 16 16 16 16 16 16 16 16 16 16 16 16 16 16 16 16 16 16
19 18 18 18 18 18 17 17 17 17 16 16 16 16 16 16 16 16 16 16 16 16 16 16 16 16 16 16 16 16 16 16 16 16 16 16 16 16 16 15 15 15 15
19 18 18 18 18 18 17 17 17 17 17 16 16 16 16 16 16 16 16 16 16 16 16 16 16 16 16 16 16 15 15 15 15 15 15 15 15 15 15 15 15 15 15
19 19 18 18 18 18 17 17 17 17 17 17 16 16 16 16 16 16 16 16 16 16 16 16 16 16 16 16 15 15 15 15 15 15 15 15 15 15 15 15 15 15 15
19 18 18 18 18 18 17 17 17 17 17 17 16 16 16 16 16 16 16 16 16 16 15 15 15 15 15 15 15 15 15 15 15 15 15 15 15 15 15 15 15 15 15
19 18 18 18 18 18 17 17 17 17 17 16 16 16 16 16 16 16 16 16 15 15 15 15 15 15 15 15 15 15 15 15 15 14 14 14 14 14 14 14 14 14 14
19 18 18 18 18 17 17 17 17 17 16 16 16 16 16 16 16 16 15 15 15 15 15 15 15 15 15 15 15 15 15 14 14 14 14 14 14 14 14 14 14 14 14
19 18 18 18 17 17 17 17 16 16 16 16 16 16 16 16 16 15 15 15 15 15 15 15 15 14 14 14 14 14 14 14 14 14 14 14 14 13 13 13 13 13 13
19 18 18 17 17 17 17 16 16 16 16 16 16 16 16 15 15 15 15 15 15 15 15 14 14 14 14 14 14 14 14 14 14 14 14 14 13 13 13 13 13 13 13
18 18 18 17 17 17 16 16 16 16 16 16 16 16 15 15 15 15 15 15 15 15 14 14 14 14 14 14 14 14 14 14 14 14 14 13 13 13 13 13 13 13 13
18 18 17 17 17 16 16 16 16 16 16 16 15 15 15 15 15 15 15 15 15 14 14 14 14 14 14 14 14 14 14 13 13 13 13 13 13 13 13 13 13 12 12
18 17 17 17 17 16 16 16 16 16 15 15 15 15 15 15 15 15 15 14 14 14 14 14 14 14 14 14 13 13 13 13 13 13 13 13 13 13 13 12 12 12 12
17 17 17 17 16 16 16 16 16 15 15 15 15 15 15 15 15 15 14 14 14 14 14 14 14 14 14 13 13 13 13 13 13 13 13 13 13 13 12 12 12 12 12
17 17 17 16 16 16 16 16 16 15 15 15 15 15 15 15 15 14 14 14 14 14 14 14 14 14 13 13 13 13 13 13 13 13 13 13 13 12 12 12 12 12 12
Wind_Speed
7 10 10 10 11 11 10 11 11 11 12 12 13 12 12 12 12 12 12 12 12 12 12 12 12 12 12 12 12 12 11 10 10 11 11 11 10 9 8 8 8 9 10
9 11 11 11 11 11 11 11 12 12 13 13 13 13 13 12 12 11 12 12 13 13 13 12 12 13 13 13 12 12 11 10 9 10 10 10 10 9 9 9 9 8 10
10 11 11 11 11 12 12 12 13 13 13 13 13 13 13 12 12 12 12 12 12 12 13 13 13 12 12 12 11 11 10 9 8 8 8 9 10 10 9 9 9 9 9
11 12 12 12 12 12 13 13 13 13 13 13 13 13 13 12 12 12 12 12 11 12 12 12 12 11 11 11 10 10 9 9 8 8 7 8 9 10 10 10 10 9 8
12 13 12 12 13 13 13 14 13 13 14 13 13 13 13 13 12 12 12 11 11 11 11 11 11 11 11 11 10 9 9 9 9 8 8 9 9 11 11 11 10 9 9
12 13 12 13 13 13 13 13 13 14 14 13 13 13 13 13 12 12 12 11 10 10 11 11 11 11 11 10 9 8 8 9 9 9 9 10 9 11 11 11 10 10 9
11 12 13 13 13 13 13 12 13 13 13 12 13 13 12 12 13 12 12 11 10 10 10 10 11 10 10 9 8 8 8 8 7 8 10 10 11 11 11 10 10 9 9
11 12 12 12 13 13 13 12 12 12 12 12 12 12 12 12 12 12 11 11 11 11 11 10 10 10 9 8 7 7 8 8 8 8 9 10 12 12 11 10 10 9 8
10 10 10 10 11 12 12 12 12 11 11 11 11 10 10 11 11 12 12 11 11 11 11 9 8 8 7 6 5 6 8 8 7 7 9 9 11 11 10 10 10 9 9
8 8 9 9 10 10 10 10 11 10 9 9 8 8 8 9 10 10 11 11 11 10 9 8 8 6 5 4 4 4 6 7 7 8 9 10 11 10 10 10 10 10 10
7 6 7 8 8 9 9 9 9 8 7 6 5 5 6 6 7 8 10 9 9 8 7 6 5 4 3 3 3 4 5 6 7 8 10 11 11 11 10 10 10 10 10
6 5 5 7 7 7 7 8 6 6 5 4 4 5 5 6 7 8 9 7 6 5 4 3 2 1 2 2 3 4 5 7 7 8 10 12 12 11 10 10 10 10 10
6 5 5 5 6 6 4 5 3 4 3 3 4 6 6 6 6 6 5 5 4 3 2 2 1 1 3 4 5 6 7 7 8 9 10 12 12 11 11 10 10 10 10
6 5 5 5 5 5 5 3 3 2 2 3 3 6 4 2 2 3 2 2 3 2 2 2 2 4 5 6 7 6 7 7 8 9 10 12 11 11 11 11 10 10 9
6 5 5 4 5 5 4 2 4 3 3 4 3 3 5 2 2 2 2 3 3 3 3 2 3 4 4 6 7 7 6 7 8 9 9 11 10 10 10 10 10 9 9
6 6 5 4 4 5 4 3 3 3 4 4 2 3 5 3 2 2 3 3 2 3 2 3 4 4 4 4 5 6 6 6 8 8 9 9 10 11 11 10 10 9 8
6 6 5 4 4 4 5 3 3 3 4 3 2 3 5 4 4 3 3 2 2 3 4 4 5 4 3 4 5 5 5 5 5 7 8 7 8 9 10 9 9 9 8
6 6 5 4 4 4 4 3 2 3 3 3 3 3 3 4 5 3 2 2 3 4 3 3 3 3 4 4 3 3 3 3 4 5 6 7 7 7 8 9 9 8 8
6 6 5 4 4 4 3 3 3 3 3 3 3 3 3 4 5 4 2 2 4 3 2 3 3 3 3 3 2 2 2 2 2 4 4 6 7 8 8 8 8 8 8
6 6 6 4 4 4 3 3 3 3 2 3 3 3 4 4 6 4 2 3 4 3 3 3 4 3 2 2 2 3 2 2 3 3 4 5 5 6 6 7 7 6 7
5 5 5 5 3 4 3 2 2 2 2 2 2 3 3 4 5 4 3 3 3 3 3 3 3 3 2 2 2 2 1 2 3 2 3 3 4 5 5 5 5 6 5
5 4 5 5 4 3 3 2 2 2 2 2 2 2 2 3 4 3 3 3 3 3 3 3 3 2 1 2 1 1 1 2 2 2 2 2 2 3 3 3 5 6 6
5 4 5 4 4 4 4 2 2 2 1 2 2 2 1 2 3 3 3 3 3 3 3 2 2 3 1 1 2 2 1 0 1 1 1 2 2 2 1 3 3 5 6
4 4 4 4 4 4 4 3 3 3 2 2 2 2 2 2 3 3 2 2 2 3 3 2 3 2 2 1 1 1 1 1 1 1 2 1 1 1 0 2 3 4 6
6 4 4 4 4 4 4 3 3 2 2 2 2 3 2 2 2 2 2 2 2 2 3 2 2 2 1 1 0 1 1 1 1 1 0 1 1 0 0 1 2 3 5
6 5 4 4 4 4 4 4 3 3 2 2 2 2 2 2 2 2 3 2 2 2 2 2 2 2 1 1 0 0 1 0 0 0 1 1 1 1 0 1 1 2 4
Wind_Direction
88 86 68 64 61 62 61 61 60 64 74 80 82 81 81 79 75 73 75 77 76 75 75 77 77 77 76 76 77 78 81 88 95 101 101 102 102 101 104 107 105 102 110
94 91 74 70 67 65 64 64 65 68 77 81 80 79 80 79 77 77 77 77 76 75 73 74 74 76 75 77 78 79 79 84 95 104 104 98 97 99 99 94 95 103 105
95 93 80 73 72 68 66 69 69 71 78 80 80 79 79 78 77 77 79 79 77 76 74 74 74 75 75 77 77 76 74 74 84 94 101 103 96 93 93 89 90 94 99
93 88 80 76 76 72 69 72 72 74 78 79 79 78 78 77 76 76 78 78 77 77 76 75 74 74 75 74 74 71 66 65 72 77 88 92 91 92 91 91 91 89 90
89 88 85 81 79 76 74 73 72 74 76 76 77 77 76 76 76 77 79 79 79 79 79 77 75 76 75 72 69 64 62 61 59 67 77 84 84 92 93 94 94 93 93
95 93 94 88 84 80 77 77 77 76 77 76 77 78 79 77 76 77 79 78 79 81 80 78 79 77 75 71 64 57 55 57 58 67 72 81 85 90 91 92 92 92 93
100 99 101 97 92 86 81 79 81 79 78 78 78 78 80 79 78 78 78 77 78 81 80 79 81 81 77 72 64 54 50 53 76 69 74 81 87 88 86 87 90 92 97
105 106 107 106 99 93 89 86 84 83 81 81 82 81 83 83 80 79 79 79 78 79 80 81 80 83 80 73 61 48 39 47 73 77 80 83 84 84 84 83 84 88 95
105 113 116 116 107 101 97 93 89 87 86 86 87 87 89 89 87 83 80 81 81 80 79 81 83 84 83 77 62 44 43 45 58 68 79 82 86 87 88 85 83 83 90
115 119 125 124 120 115 109 104 100 97 95 97 98 99 99 97 95 93 88 85 85 85 84 85 85 86 88 82 65 51 52 48 65 64 76 83 85 87 88 86 85 84 84
112 121 129 128 126 123 123 118 118 113 109 114 117 118 115 113 111 102 97 95 93 93 92 95 97 98 105 111 89 61 59 75 73 69 75 84 87 90 90 88 87 85 85
127 122 120 128 126 121 120 127 132 124 135 132 120 118 112 101 98 99 109 112 114 119 121 129 137 124 116 121 111 86 75 82 76 76 79 84 87 90 90 88 88 87 85
123 115 115 121 115 115 111 118 105 109 119 104 90 93 95 101 110 115 131 140 147 143 120 111 146 89 86 87 89 90 83 75 76 76 81 82 85 89 88 86 86 86 84
124 120 111 108 113 112 106 111 118 109 101 80 73 86 85 86 91 110 116 117 112 88 72 74 70 65 67 73 78 83 84 85 83 83 81 81 83 89 87 85 82 81 84
132 124 113 110 112 111 104 113 103 100 86 84 60 94 92 73 78 87 83 72 80 76 67 48 51 57 54 56 63 70 70 81 90 91 87 84 84 86 86 86 83 82 82
138 130 120 118 114 118 119 115 100 93 87 82 57 65 90 90 72 79 78 66 65 79 80 82 66 53 56 62 54 57 61 75 89 98 100 91 87 86 84 82 81 80 80
136 128 124 128 118 114 110 104 103 103 103 99 69 60 75 77 75 69 76 67 71 70 61 66 70 62 60 64 63 56 53 60 78 95 103 105 97 88 85 84 80 77 75
131 121 117 124 114 103 108 116 111 93 86 82 60 50 69 76 79 72 70 62 68 67 59 65 68 61 57 57 58 63 63 56 54 82 100 104 101 96 93 89 82 77 75
132 126 127 120 109 105 105 107 96 94 88 81 59 39 45 63 79 80 64 58 69 65 55 58 58 68 68 63 69 70 65 65 50 64 70 92 99 102 104 97 87 77 75
135 131 130 121 116 108 91 98 92 90 87 89 76 46 37 51 66 74 72 67 66 69 54 58 63 57 62 56 51 62 65 80 67 49 47 66 81 93 105 106 101 85 76
139 135 133 134 131 120 110 105 120 123 119 107 106 78 48 59 66 70 60 65 66 75 77 76 83 73 56 62 63 44 27 57 80 73 51 53 59 70 83 103 113 109 94
143 142 142 141 143 128 121 129 129 137 149 129 108 110 83 75 79 77 83 84 79 79 70 66 73 63 40 50 77 69 43 27 12 73 88 73 65 61 47 81 99 110 111
148 149 143 140 141 134 137 126 111 102 100 104 129 124 111 88 86 76 87 96 103 101 99 96 95 91 58 5 50 72 87 142 305 11 74 82 75 65 31 55 86 105 109
139 136 137 143 146 140 139 141 144 142 158 184 162 146 153 119 106 95 89 99 108 103 107 113 102 103 99 14 4 39 76 107 115 17 350 32 89 93 25 56 59 75 97
141 141 148 145 138 135 140 138 155 160 185 161 144 144 157 138 134 135 125 114 109 113 115 98 91 90 111 138 65 32 25 19 51 128 227 315 351 308 131 76 89 91 97
142 144 151 148 141 132 133 140 166 172 179 146 156 165 170 152 169 159 137 135 121 112 118 130 131 134 158 132 128 135 138 128 299 103 196 227 226 252 200 96 90 108 110
Height
1500 1499 1498 1497 1496 1496 1495 1494 1494 1493 1493 1494 1495 1497 1498 1500 1501 1502 1503 1503 1504 1504 1505 1505 1506 1507 1507 1507 1508 1509 1510 1511 1512 1513 1514 1515 1516 1516 1518 1519 1519 1520 1522
1501 1500 1499 1498 1498 1497 1497 1496 1496 1495 1496 1497 1498 1499 1500 1501 1502 1503 1504 1505 1505 1506 1506 1507 1508 1508 1509 1509 1510 1511 1512 1512 1513 1515 1515 1516 1517 1518 1519 1519 1520 1521 1522
1502 1501 1500 1500 1499 1499 1499 1498 1498 1498 1499 1499 1500 1501 1502 1503 1504 1505 1505 1506 1507 1508 1508 1509 1509 1510 1510 1511 1512 1513 1513 1514 1515 1516 1517 1517 1518 1519 1519 1520 1521 1522 1523
1503 1502 1502 1501 1501 1501 1500 1500 1500 1501 1501 1502 1502 1503 1503 1504 1505 1506 1507 1508 1508 1509 1510 1510 1511 1512 1512 1513 1514 1514 1515 1516 1517 1517 1518 1519 1519 1520 1520 1521 1522 1522 1524
1504 1503 1503 1503 1502 1502 1502 1502 1502 1503 1503 1504 1504 1505 1505 1506 1506 1507 1508 1509 1509 1510 1511 1512 1513 1513 1514 1514 1515 1516 1516 1517 1518 1519 1519 1520 1521 1521 1521 1522 1523 1523 1524
1505 1505 1504 1504 1504 1504 1504 1504 1505 1505 1505 1505 1506 1506 1507 1507 1508 1509 1509 1510 1511 1512 1512 1513 1514 1514 1515 1516 1517 1517 1518 1519 1519 1520 1521 1521 1522 1522 1523 1523 1524 1524 1525
1507 1506 1506 1506 1506 1506 1506 1506 1506 1507 1507 1507 1508 1508 1509 1509 1510 1510 1511 1512 1512 1513 1514 1514 1515 1516 1516 1517 1518 1519 1520 1520 1521 1521 1522 1522 1523 1523 1524 1524 1525 1525 1526
1508 1507 1507 1507 1508 1508 1508 1508 1508 1508 1509 1509 1510 1510 1511 1511 1512 1512 1513 1513 1514 1514 1515 1516 1516 1517 1518 1519 1519 1520 1521 1522 1522 1523 1523 1523 1524 1524 1524 1525 1526 1526 1527
1509 1509 1509 1509 1509 1509 1510 1510 1510 1510 1511 1511 1512 1512 1513 1513 1514 1514 1514 1515 1515 1516 1516 1517 1518 1518 1519 1520 1521 1521 1522 1522 1523 1523 1524 1524 1524 1525 1525 1525 1526 1527 1527
1510 1511 1510 1511 1511 1511 1512 1512 1512 1512 1513 1513 1514 1514 1515 1515 1515 1516 1516 1517 1517 1517 1518 1518 1519 1520 1521 1521 1522 1522 1523 1523 1524 1524 1524 1524 1525 1525 1525 1526 1526 1527 1528
1512 1512 1512 1513 1513 1513 1513 1514 1514 1515 1515 1515 1516 1516 1517 1517 1517 1518 1518 1518 1519 1519 1519 1520 1521 1521 1522 1523 1523 1523 1524 1524 1524 1525 1525 1525 1525 1525 1526 1526 1527 1528 1528
1512 1513 1514 1514 1515 1515 1516 1516 1516 1516 1517 1517 1518 1518 1519 1519 1519 1520 1520 1520 1520 1521 1521 1522 1522 1523 1523 1523 1524 1524 1524 1525 1525 1526 1526 1526 1526 1526 1527 1527 1527 1528 1529
1513 1514 1515 1516 1516 1517 1517 1518 1518 1518 1518 1519 1520 1520 1520 1520 1521 1521 1521 1521 1522 1522 1523 1523 1523 1524 1524 1524 1525 1525 1525 1526 1526 1526 1527 1527 1527 1527 1527 1527 1528 1528 1529
1513 1514 1516 1517 1517 1518 1518 1519 1519 1519 1520 1520 1521 1521 1522 1522 1522 1522 1522 1523 1523 1523 1524 1525 1525 1525 1525 1526 1526 1526 1526 1526 1527 1527 1528 1528 1528 1528 1528 1528 1528 1529 1529
1513 1514 1516 1517 1517 1518 1519 1519 1520 1521 1521 1521 1522 1522 1523 1523 1523 1523 1524 1524 1524 1525 1525 1525 1526 1526 1527 1527 1527 1527 1528 1528 1528 1528 1528 1528 1528 1528 1529 1529 1529 1529 1530
1513 1514 1515 1517 1518 1518 1519 1520 1520 1521 1522 1522 1523 1523 1523 1523 1524 1524 1524 1525 1525 1525 1526 1526 1526 1527 1527 1527 1528 1528 1529 1529 1529 1529 1529 1529 1530 1529 1529 1529 1530 1530 1530
1512 1514 1515 1517 1517 1518 1519 1520 1521 1522 1522 1523 1523 1524 1524 1524 1524 1525 1525 1525 1526 1526 1526 1527 1527 1527 1528 1528 1528 1529 1529 1530 1530 1530 1530 1530 1530 1530 1530 1530 1530 1530 1530
1511 1513 1514 1516 1517 1518 1519 1520 1521 1522 1522 1523 1523 1524 1524 1525 1525 1525 1525 1526 1526 1526 1527 1527 1527 1528 1528 1528 1529 1529 1530 1530 1530 1530 1530 1530 1530 1530 1530 1530 1530 1530 1530
1510 1512 1514 1515 1517 1518 1519 1520 1521 1522 1522 1523 1524 1524 1525 1525 1525 1525 1525 1526 1526 1526 1527 1527 1528 1528 1528 1529 1529 1530 1530 1530 1531 1531 1530 1530 1530 1530 1530 1530 1530 1530 1530
1509 1511 1513 1514 1516 1517 1518 1519 1520 1521 1522 1523 1523 1524 1524 1525 1525 1525 1525 1526 1526 1526 1527 1527 1527 1528 1528 1529 1529 1530 1530 1530 1531 1531 1531 1530 1530 1530 1530 1530 1530 1530 1530
1508 1510 1511 1513 1515 1516 1517 1518 1519 1520 1521 1522 1523 1524 1524 1525 1525 1525 1525 1525 1526 1526 1526 1527 1527 1528 1528 1529 1529 1529 1530 1530 1531 1531 1531 1531 1531 1531 1530 1530 1530 1530 1530
1506 1508 1510 1512 1513 1515 1516 1517 1519 1520 1521 1522 1523 1523 1524 1524 1524 1524 1525 1525 1525 1526 1526 1526 1527 1527 1528 1528 1529 1529 1530 1531 1531 1531 1531 1531 1531 1531 1531 1530 1530 1530 1529
1504 1506 1508 1510 1512 1513 1515 1516 1518 1519 1520 1521 1522 1522 1523 1523 1524 1524 1525 1525 1525 1525 1526 1526 1526 1527 1527 1528 1529 1530 1530 1530 1530 1531 1530 1530 1530 1530 1530 1530 1530 1530 1529
1502 1505 1507 1509 1510 1512 1513 1515 1516 1517 1518 1520 1521 1521 1522 1523 1523 1524 1524 1524 1525 1525 1525 1526 1526 1526 1527 1527 1528 1529 1530 1529 1530 1530 1531 1530 1530 1530 1530 1530 1530 1529 1529
1500 1503 1505 1507 1508 1510 1511 1513 1514 1516 1517 1518 1519 1520 1521 1521 1522 1523 1523 1523 1524 1524 1524 1525 1525 1526 1526 1527 1527 1528 1528 1528 1529 1529 1529 1530 1530 1529 1529 1529 1529 1528 1528
1498 1501 1503 1505 1507 1508 1509 1511 1512 1514 1515 1517 1518 1518 1519 1520 1521 1521 1522 1522 1523 1523 1523 1524 1524 1525 1525 1526 1526 1527 1527 1527 1528 1528 1528 1528 1528 1529 1528 1528 1528 1527 1527